Location: Ecklingerode
(51.5036°N, 10.3122°E)
Time: 14:05:50
(UTC+00:00)

Cosmos 2278 Rocket - Pass Details

Date: 29 October 2020
Orbit: 840 x 847 km, 71.0° (Epoch: 28 November)

Event Time Altitude Azimuth Distance (km) Brightness Sun altitude
Rises 18:17:55 0° 323° (NW) 3,411 6.0 -22.5°
Reaches altitude 10° 18:22:09 10° 353° (N) 2,476 4.8 -23.1°
Maximum altitude 18:24:23 12° 16° (NNE) 2,319 4.4 -23.5°
Enters shadow 18:25:10 12° 25° (NNE) 2,340 4.3 -23.6°
